Luverne, MN

11:45 AM CDT on July 27, 2016 (GMT -0500)
Luverne

Weather History for KLYV - January, 2013

Change the Weather History Date:

Wednesday, January 30, 2013

  Actual Average (KFSD) Record (KFSD)
Temperature  
Mean Temperature 12 °F 18 °F  
Max Temperature 23 °F 28 °F 58 °F (1989)
Min Temperature 1 °F 8 °F -27 °F (1899)
Degree Days  
Heating Degree Days 53 47  
Month to date heating degree days 1457  
Since 1 July heating degree days 4590  
Cooling Degree Days 0 0  
Month to date cooling degree days 0  
Year to date cooling degree days 0  
Moisture  
Dew Point 9 °F    
Average Humidity 74    
Maximum Humidity 80    
Minimum Humidity 68    
Precipitation  
Precipitation 0.00 in 0.02 in 0.39 in (1929)
Month to date precipitation 0.54  
Year to date precipitation 0.54  
Snow  
Snow 0.00 in 0.20 in 4.50 in (1929)
Month to date snowfall 7.4  
Since 1 July snowfall 24.3  
Snow Depth -    
Sea Level Pressure  
Sea Level Pressure 29.80 in    
Wind  
Wind Speed 19 mph (NNW)    
Max Wind Speed 24 mph    
Max Gust Speed 34 mph    
Visibility 9 miles    
Events Snow    
T = Trace of Precipitation, MM = Missing Value Source: NWS Daily Summary

Daily Weather History Graph

Daily Weather History Graph

Search for Another Location

Airport or City:

Trip Planner

Search our weather history database for the weather conditions in past years. The results will help you decide how hot, cold, wet, or windy it might be!

Date:

Astronomy

Jan. 30, 2013 Rise Set
Actual Time 7:43 AM CST 5:33 PM CST
Civil Twilight 7:12 AM CST 6:04 PM CST
Nautical Twilight 6:38 AM CST 6:38 PM CST
Astronomical Twilight 6:04 AM CST 7:12 PM CST
Moon 9:43 PM CST (1/30) 9:03 AM CST (1/30)
Length of Visible Light 10h 51m
Length of Day
9h 50m
Waning Gibbous, 87% of the Moon is Illuminated
Jan 30
Waning Gibbous
Feb 3
Last Quarter
Feb 10
New
Feb 17
First Quarter
Feb 25
Full

Hourly Weather History & Observations

Time (CST) Temp. Windchill Dew Point Humidity Pressure Visibility Wind Dir Wind Speed Gust Speed Precip Events Conditions
12:16 AM 23.0 °F 8.7 °F 17.6 °F 80% 29.76 in 10.0 mi North 18.4 mph 32.2 mph N/A   Overcast
12:36 AM 23.0 °F 7.6 °F 15.8 °F 74% 29.78 in 10.0 mi North 21.9 mph 31.1 mph N/A   Overcast
12:56 AM 23.0 °F 8.7 °F 15.8 °F 74% 29.76 in 10.0 mi North 18.4 mph 34.5 mph N/A   Overcast
1:16 AM 23.0 °F 8.0 °F 15.8 °F 74% 29.74 in 10.0 mi North 20.7 mph 34.5 mph N/A   Overcast
1:36 AM 23.0 °F 8.7 °F 15.8 °F 74% 29.75 in 10.0 mi North 18.4 mph 29.9 mph N/A   Overcast
1:56 AM 23.0 °F 7.6 °F 15.8 °F 74% 29.76 in 10.0 mi North 21.9 mph 28.8 mph N/A   Overcast
2:16 AM 23.0 °F 8.3 °F 15.8 °F 74% 29.76 in 10.0 mi North 19.6 mph 31.1 mph N/A   Overcast
2:36 AM 21.2 °F 6.8 °F 15.8 °F 80% 29.76 in 10.0 mi North 17.3 mph 27.6 mph N/A   Overcast
2:56 AM 21.2 °F 6.8 °F 15.8 °F 80% 29.75 in 10.0 mi North 17.3 mph 31.1 mph N/A   Overcast
3:16 AM 21.2 °F 5.6 °F 15.8 °F 80% 29.75 in 10.0 mi North 20.7 mph 29.9 mph N/A   Overcast
3:36 AM 21.2 °F 6.8 °F 14.0 °F 74% 29.76 in 10.0 mi North 17.3 mph 31.1 mph N/A   Overcast
3:56 AM 21.2 °F 6.4 °F 14.0 °F 74% 29.77 in 10.0 mi North 18.4 mph 29.9 mph N/A   Overcast
4:16 AM 21.2 °F 4.9 °F 14.0 °F 74% 29.78 in 10.0 mi North 23.0 mph 31.1 mph N/A   Overcast
4:36 AM 19.4 °F 4.5 °F 14.0 °F 80% 29.78 in 10.0 mi North 17.3 mph 29.9 mph N/A   Overcast
4:56 AM 19.4 °F 2.8 °F 14.0 °F 80% 29.78 in 10.0 mi North 21.9 mph 27.6 mph N/A   Overcast
5:16 AM 19.4 °F 4.5 °F 14.0 °F 80% 29.78 in 10.0 mi North 17.3 mph 21.9 mph N/A   Overcast
5:36 AM 19.4 °F 5.0 °F 12.2 °F 74% 29.77 in 10.0 mi North 16.1 mph 28.8 mph N/A   Overcast
5:56 AM 19.4 °F 3.2 °F 12.2 °F 74% 29.76 in 10.0 mi NNW 20.7 mph 27.6 mph N/A   Overcast
6:16 AM 19.4 °F 2.8 °F 12.2 °F 74% 29.76 in 10.0 mi NNW 21.9 mph 29.9 mph N/A   Overcast
6:36 AM 17.6 °F 0.1 °F 10.4 °F 73% 29.77 in 10.0 mi NNW 23.0 mph 31.1 mph N/A   Overcast
6:56 AM 17.6 °F 0.5 °F 10.4 °F 73% 29.77 in 10.0 mi NNW 21.9 mph 28.8 mph N/A   Overcast
7:16 AM 17.6 °F 1.3 °F 12.2 °F 79% 29.78 in 10.0 mi NNW 19.6 mph 27.6 mph N/A   Overcast
7:36 AM 17.6 °F 1.3 °F 10.4 °F 73% 29.78 in 10.0 mi NNW 19.6 mph 31.1 mph N/A   Overcast
7:56 AM 17.6 °F 0.9 °F 12.2 °F 79% 29.79 in 10.0 mi NNW 20.7 mph 27.6 mph N/A   Overcast
8:16 AM 19.4 °F 4.5 °F 12.2 °F 74% 29.79 in 5.0 mi NNW 17.3 mph 20.7 mph N/A Snow Light Snow
8:36 AM 17.6 °F 0.5 °F 10.4 °F 73% 29.79 in 4.0 mi NNW 21.9 mph 29.9 mph N/A Snow Light Snow
8:56 AM 17.6 °F 0.9 °F 10.4 °F 73% 29.79 in 4.0 mi NNW 20.7 mph 33.4 mph N/A Snow Light Snow
9:16 AM 17.6 °F -0.3 °F 10.4 °F 73% 29.78 in 5.0 mi NNW 24.2 mph 32.2 mph N/A Snow Light Snow
9:36 AM 17.6 °F 0.9 °F 10.4 °F 73% 29.78 in 7.0 mi NNW 20.7 mph 31.1 mph N/A   Overcast
9:56 AM 19.4 °F 2.5 °F 12.2 °F 74% 29.79 in 5.0 mi NNW 23.0 mph 27.6 mph N/A Snow Light Snow
10:16 AM 19.4 °F 3.6 °F 12.2 °F 74% 29.79 in 2.0 mi NNW 19.6 mph 26.5 mph N/A Snow Light Snow
10:36 AM 17.6 °F 0.9 °F 12.2 °F 79% 29.80 in 2.0 mi NNW 20.7 mph 26.5 mph N/A Snow Light Snow
10:55 AM 19.4 °F 4.1 °F 10.4 °F 68% 29.80 in 7.0 mi North 18.4 mph 25.3 mph N/A   Overcast
11:16 AM 17.6 °F -0.3 °F 10.4 °F 73% 29.80 in 10.0 mi NNW 24.2 mph 32.2 mph N/A   Overcast
11:36 AM 19.4 °F 5.5 °F 12.2 °F 74% 29.81 in 7.0 mi NNW 15.0 mph 26.5 mph N/A Snow Light Snow
11:56 AM 17.6 °F 1.7 °F 10.4 °F 73% 29.81 in 10.0 mi NW 18.4 mph 25.3 mph N/A   Overcast
12:16 PM 17.6 °F 2.7 °F 10.4 °F 73% 29.80 in 7.0 mi NNW 16.1 mph - N/A Snow Light Snow
12:36 PM 17.6 °F 0.9 °F 10.4 °F 73% 29.80 in 10.0 mi NNW 20.7 mph 26.5 mph N/A   Overcast
12:56 PM 17.6 °F 2.2 °F 10.4 °F 73% 29.80 in 10.0 mi NNW 17.3 mph 27.6 mph N/A   Overcast
1:16 PM 17.6 °F 0.9 °F 10.4 °F 73% 29.79 in 10.0 mi NNW 20.7 mph 25.3 mph N/A   Overcast
1:36 PM 17.6 °F 1.7 °F 10.4 °F 73% 29.78 in 10.0 mi NNW 18.4 mph 23.0 mph N/A   Overcast
1:56 PM 17.6 °F 1.7 °F 10.4 °F 73% 29.78 in 10.0 mi NNW 18.4 mph 24.2 mph N/A   Overcast
2:16 PM 17.6 °F 1.7 °F 8.6 °F 68% 29.78 in 10.0 mi NNW 18.4 mph 23.0 mph N/A   Overcast
2:36 PM 15.8 °F -1.1 °F 8.6 °F 73% 29.78 in 10.0 mi NW 19.6 mph 24.2 mph N/A   Overcast
2:56 PM 15.8 °F -0.2 °F 8.6 °F 73% 29.79 in 7.0 mi NW 17.3 mph 24.2 mph N/A Snow Light Snow
3:16 PM 15.8 °F -1.5 °F 8.6 °F 73% 29.79 in 7.0 mi NW 20.7 mph 25.3 mph N/A   Overcast
3:36 PM 14.0 °F -1.4 °F 8.6 °F 79% 29.79 in 10.0 mi NW 15.0 mph 24.2 mph N/A   Overcast
3:56 PM 15.8 °F -0.2 °F 8.6 °F 73% 29.80 in 10.0 mi NW 17.3 mph 24.2 mph N/A   Overcast
4:16 PM 15.8 °F 0.3 °F 8.6 °F 73% 29.80 in 10.0 mi NNW 16.1 mph - N/A   Overcast
4:36 PM 14.0 °F -3.0 °F 6.8 °F 73% 29.80 in 10.0 mi NW 18.4 mph 23.0 mph N/A   Overcast
4:56 PM 14.0 °F -2.0 °F 8.6 °F 79% 29.80 in 5.0 mi NW 16.1 mph 23.0 mph N/A Snow Light Snow
5:16 PM 14.0 °F -1.4 °F 6.8 °F 73% 29.80 in 10.0 mi NW 15.0 mph - N/A   Mostly Cloudy
5:36 PM 12.2 °F -4.3 °F 6.8 °F 79% 29.81 in 7.0 mi NW 16.1 mph 20.7 mph N/A   Scattered Clouds
5:56 PM 12.2 °F -4.3 °F 5.0 °F 73% 29.82 in 10.0 mi NW 16.1 mph 19.6 mph N/A   Clear
6:16 PM 12.2 °F -3.1 °F 5.0 °F 73% 29.83 in 10.0 mi NW 13.8 mph 20.7 mph N/A   Clear
6:36 PM 10.4 °F -3.3 °F 3.2 °F 73% 29.83 in 10.0 mi NW 10.4 mph 24.2 mph N/A   Clear
6:56 PM 10.4 °F -6.0 °F 3.2 °F 73% 29.84 in 10.0 mi WNW 15.0 mph 21.9 mph N/A   Clear
7:16 PM 10.4 °F -6.0 °F 3.2 °F 73% 29.84 in 10.0 mi NW 15.0 mph - N/A   Clear
7:36 PM 8.6 °F -7.7 °F 3.2 °F 79% 29.83 in 10.0 mi NW 13.8 mph 18.4 mph N/A   Clear
7:56 PM 8.6 °F -8.9 °F 1.4 °F 73% 29.84 in 10.0 mi WNW 16.1 mph - N/A   Clear
8:16 PM 8.6 °F -8.9 °F 1.4 °F 73% 29.84 in 7.0 mi WNW 16.1 mph - N/A   Scattered Clouds
8:35 PM 8.6 °F -8.9 °F 1.4 °F 73% 29.83 in 10.0 mi WNW 16.1 mph 20.7 mph N/A   Scattered Clouds
8:56 PM 6.8 °F -11.3 °F 1.4 °F 79% 29.83 in 10.0 mi NW 16.1 mph 21.9 mph N/A   Mostly Cloudy
9:16 PM 6.8 °F -10.7 °F -0.4 °F 72% 29.84 in 10.0 mi NW 15.0 mph - N/A   Mostly Cloudy
9:36 PM 5.0 °F -14.2 °F -0.4 °F 78% 29.85 in 10.0 mi NW 17.3 mph 20.7 mph N/A   Scattered Clouds
9:56 PM 5.0 °F -14.7 °F -2.2 °F 72% 29.85 in 10.0 mi NW 18.4 mph 23.0 mph N/A   Scattered Clouds
10:16 PM 3.2 °F -13.9 °F -4.0 °F 72% 29.86 in 10.0 mi NW 12.7 mph 24.2 mph N/A   Clear
10:36 PM 3.2 °F -13.9 °F -4.0 °F 72% 29.87 in 10.0 mi NW 12.7 mph 20.7 mph N/A   Clear
10:56 PM 3.2 °F -12.2 °F -4.0 °F 72% 29.87 in 10.0 mi NW 10.4 mph 18.4 mph N/A   Clear
11:16 PM 3.2 °F -13.1 °F -4.0 °F 72% 29.87 in 10.0 mi NW 11.5 mph 17.3 mph N/A   Clear
11:36 PM 1.4 °F -17.6 °F -5.8 °F 72% 29.87 in 10.0 mi NNW 15.0 mph 24.2 mph N/A   Clear
11:56 PM 1.4 °F -16.9 °F -5.8 °F 72% 29.88 in 10.0 mi NNW 13.8 mph 18.4 mph N/A   Clear